Silver City, NM

2:30 PM MST on December 08, 2019 (GMT -0700)
Grant County

Weather History for KSVC - October, 2019

Change the Weather History Date:

Wednesday, October 9, 2019

  Actual Average (WUND) Record (WUND)
Temperature  
Mean Temperature 61 °F -  
Max Temperature 76 °F - - (-1)
Min Temperature 46 °F - - (-1)
Degree Days  
Heating Degree Days 4    
Growing Degree Days 11 (Base 50)    
Moisture  
Dew Point 37 °F    
Average Humidity 49    
Maximum Humidity 94    
Minimum Humidity 14    
Precipitation  
Precipitation 0.00 in - - ()
Sea Level Pressure  
Sea Level Pressure 30.00 in    
Wind  
Wind Speed 8 mph (WNW)    
Max Wind Speed 22 mph    
Max Gust Speed 29 mph    
Visibility 10 miles    
Events      
Averages and records for this station are not official NWS values.
T = Trace of Precipitation, MM = Missing Value Source: NWS Daily Summary

Daily Weather History Graph

Daily Weather History Graph

Search for Another Location

Airport or City:

Astronomy

Oct. 09, 2019 Rise Set
Actual Time 7:12 AM MDT 6:47 PM MDT
Civil Twilight 6:47 AM MDT 7:11 PM MDT
Nautical Twilight 6:18 AM MDT 7:40 PM MDT
Astronomical Twilight 5:50 AM MDT 8:08 PM MDT
Moon 5:04 PM MDT (10/9) 3:20 AM MDT (10/9)
Length of Visible Light 12h 24m
Length of Day
11h 35m
Waxing Gibbous, 85% of the Moon is Illuminated
Oct 9
Waxing Gibbous
Oct 13
Full
Oct 21
Last Quarter
Oct 27
New
Nov 4
First Quarter

Hourly Weather History & Observations

Time (MDT) Temp. Dew Point Humidity Pressure Visibility Wind Dir Wind Speed Gust Speed Precip Events Conditions
12:15 AM 57.4 °F 54.1 °F 89% 30.04 in 10.0 mi NE 3.5 mph - N/A   Mostly Cloudy
12:35 AM 54.7 °F 52.3 °F 92% 30.04 in 10.0 mi Calm Calm - N/A   Scattered Clouds
12:55 AM 54.0 °F 52.0 °F 93% 30.03 in 10.0 mi Calm Calm - N/A   Clear
1:15 AM 53.8 °F 52.0 °F 94% 30.04 in 10.0 mi NNE 4.6 mph - N/A   Clear
1:35 AM 52.9 °F 50.9 °F 93% 30.04 in 10.0 mi North 5.8 mph - N/A   Clear
1:55 AM 54.5 °F 52.2 °F 92% 30.04 in 10.0 mi NNE 5.8 mph - N/A   Clear
2:15 AM 53.4 °F 51.3 °F 92% 30.04 in 10.0 mi North 4.6 mph - N/A   Clear
2:35 AM 52.9 °F 50.9 °F 93% 30.04 in 10.0 mi North 4.6 mph - N/A   Clear
2:55 AM 52.0 °F 50.4 °F 94% 30.02 in 10.0 mi North 6.9 mph - N/A   Clear
3:15 AM 52.2 °F 50.5 °F 94% 30.02 in 10.0 mi North 8.1 mph - N/A   Clear
3:35 AM 52.2 °F 50.4 °F 94% 30.02 in 10.0 mi North 8.1 mph - N/A   Clear
3:55 AM 51.4 °F 49.6 °F 94% 30.01 in 10.0 mi North 6.9 mph - N/A   Clear
4:15 AM 51.4 °F 49.6 °F 94% 30.01 in 10.0 mi North 6.9 mph - N/A   Clear
4:35 AM 51.4 °F 49.5 °F 93% 30.01 in 10.0 mi North 9.2 mph - N/A   Clear
4:55 AM 51.4 °F 49.3 °F 92% 30.01 in 10.0 mi North 5.8 mph - N/A   Clear
5:15 AM 50.0 °F 48.4 °F 94% 30.02 in 10.0 mi WNW 3.5 mph - N/A   Clear
5:35 AM 48.7 °F 46.9 °F 93% 30.02 in 10.0 mi NNW 5.8 mph - N/A   Clear
5:55 AM 48.4 °F 46.6 °F 93% 30.02 in 10.0 mi North 8.1 mph - N/A   Clear
6:15 AM 49.3 °F 46.9 °F 92% 30.02 in 10.0 mi North 5.8 mph - N/A   Clear
6:35 AM 48.4 °F 46.0 °F 92% 30.02 in 10.0 mi North 6.9 mph - N/A   Clear
6:55 AM 48.0 °F 45.5 °F 91% 30.02 in 10.0 mi North 5.8 mph - N/A   Clear
7:15 AM 46.8 °F 42.8 °F 86% 30.02 in 10.0 mi NNW 9.2 mph - N/A   Clear
7:35 AM 47.8 °F 43.7 °F 86% 30.02 in 10.0 mi North 10.4 mph - N/A   Clear
7:55 AM 50.0 °F 45.1 °F 83% 30.02 in 10.0 mi NNW 9.2 mph - N/A   Clear
8:15 AM 53.8 °F 46.6 °F 77% 30.03 in 10.0 mi NNW 6.9 mph - N/A   Clear
8:35 AM 58.5 °F 46.6 °F 65% 30.04 in 10.0 mi NW 4.6 mph - N/A   Clear
8:55 AM 61.2 °F 42.6 °F 51% 30.04 in 10.0 mi NW 4.6 mph - N/A   Clear
9:15 AM 63.5 °F 42.1 °F 46% 30.04 in 10.0 mi WNW 5.8 mph - N/A   Clear
9:35 AM 65.5 °F 41.0 °F 41% 30.05 in 10.0 mi WSW 4.6 mph - N/A   Clear
9:55 AM 67.6 °F 41.2 °F 38% 30.05 in 10.0 mi SW 3.5 mph - N/A   Clear
10:15 AM 69.6 °F 38.5 °F 32% 30.05 in 10.0 mi West 4.6 mph - N/A   Clear
10:35 AM 71.4 °F 33.4 °F 25% 30.05 in 10.0 mi West 11.5 mph - N/A   Clear
10:55 AM 72.1 °F 33.1 °F 24% 30.05 in 10.0 mi West 13.8 mph 19.6 mph N/A   Clear
11:15 AM 72.1 °F 31.1 °F 22% 30.04 in 10.0 mi West 13.8 mph 18.4 mph N/A   Clear
11:35 AM 71.8 °F 31.6 °F 23% 30.04 in 10.0 mi West 11.5 mph 23.0 mph N/A   Clear
11:55 AM 72.7 °F 32.2 °F 23% 30.04 in 10.0 mi West 16.1 mph 23.0 mph N/A   Clear
12:15 PM 72.7 °F 32.5 °F 23% 30.03 in 10.0 mi WSW 8.1 mph 17.3 mph N/A   Clear
12:35 PM 73.9 °F 32.9 °F 22% 30.02 in 10.0 mi West 13.8 mph 19.6 mph N/A   Clear
12:55 PM 73.9 °F 32.5 °F 22% 30.01 in 10.0 mi West 17.3 mph 23.0 mph N/A   Clear
1:15 PM 73.9 °F 32.2 °F 22% 30.00 in 10.0 mi West 12.7 mph 23.0 mph N/A   Clear
1:35 PM 74.5 °F 32.4 °F 21% 29.99 in 10.0 mi West 16.1 mph 25.3 mph N/A   Clear
1:55 PM 74.1 °F 31.8 °F 21% 29.97 in 10.0 mi West 20.7 mph 27.6 mph N/A   Clear
2:15 PM 75.4 °F 33.3 °F 21% 29.96 in 10.0 mi West 15.0 mph 28.8 mph N/A   Clear
2:35 PM 75.4 °F 34.9 °F 23% 29.95 in 10.0 mi West 16.1 mph 26.5 mph N/A   Clear
2:55 PM 74.8 °F 32.2 °F 21% 29.95 in 10.0 mi West 19.6 mph 24.2 mph N/A   Clear
3:15 PM 75.9 °F 30.7 °F 19% 29.95 in 10.0 mi West 13.8 mph 27.6 mph N/A   Clear
3:35 PM 76.5 °F 31.8 °F 20% 29.95 in 10.0 mi West 17.3 mph 23.0 mph N/A   Clear
3:55 PM 75.9 °F 31.6 °F 20% 29.95 in 10.0 mi WSW 13.8 mph 23.0 mph N/A   Clear
4:15 PM 76.3 °F 23.9 °F 14% 29.94 in 10.0 mi West 13.8 mph 24.2 mph N/A   Clear
4:35 PM 75.9 °F 23.2 °F 14% 29.94 in 10.0 mi West 21.9 mph 26.5 mph N/A   Clear
4:55 PM 75.4 °F 23.9 °F 15% 29.94 in 10.0 mi WSW 12.7 mph - N/A   Clear
5:15 PM 74.7 °F 23.7 °F 15% 29.94 in 10.0 mi West 18.4 mph 24.2 mph N/A   Clear
5:35 PM 74.3 °F 23.0 °F 15% 29.94 in 10.0 mi WSW 13.8 mph 25.3 mph N/A   Clear
5:55 PM 73.8 °F 24.4 °F 16% 29.94 in 10.0 mi WSW 15.0 mph 19.6 mph N/A   Clear
6:15 PM 72.7 °F 25.0 °F 17% 29.94 in 10.0 mi West 13.8 mph 18.4 mph N/A   Clear
6:35 PM 70.9 °F 26.8 °F 19% 29.94 in 10.0 mi West 9.2 mph - N/A   Clear
6:55 PM 68.9 °F 26.1 °F 20% 29.94 in 10.0 mi West 9.2 mph - N/A   Clear
7:15 PM 68.4 °F 25.0 °F 20% 29.94 in 10.0 mi West 9.2 mph - N/A   Clear
7:35 PM 66.2 °F 25.0 °F 21% 29.95 in 10.0 mi West 9.2 mph - N/A   Clear
7:55 PM 66.7 °F 23.9 °F 20% 29.95 in 10.0 mi West 6.9 mph - N/A   Clear
8:15 PM 64.6 °F 24.6 °F 22% 29.96 in 10.0 mi West 5.8 mph - N/A   Clear
8:35 PM 63.5 °F 25.3 °F 23% 29.96 in 10.0 mi West 8.1 mph - N/A   Clear
9:15 PM 59.2 °F 29.7 °F 33% 29.97 in 10.0 mi West 9.2 mph - N/A   Clear
9:35 PM 65.8 °F 28.0 °F 24% 29.97 in 10.0 mi West 10.4 mph 16.1 mph N/A   Clear
9:55 PM 63.9 °F 29.3 °F 27% 29.97 in 10.0 mi West 10.4 mph - N/A   Clear
10:15 PM 62.2 °F 30.6 °F 30% 29.97 in 10.0 mi West 10.4 mph - N/A   Clear
10:35 PM 58.1 °F 32.0 °F 37% 29.97 in 10.0 mi WNW 9.2 mph - N/A   Clear
10:55 PM 57.7 °F 32.2 °F 38% 29.98 in 10.0 mi WNW 9.2 mph - N/A   Clear
11:15 PM 56.1 °F 33.1 °F 42% 29.98 in 10.0 mi WNW 9.2 mph - N/A   Clear
11:35 PM 56.1 °F 33.4 °F 42% 29.98 in 10.0 mi WNW 9.2 mph - N/A   Clear
11:55 PM 55.0 °F 34.0 °F 45% 29.98 in 10.0 mi WNW 10.4 mph - N/A   Clear